| time (UTC) | temp C | wind direction | speed KPH | gust KPH | rain 1hr cm | rain 24hr cm | rain mn cm | humidity % | barometer mb |
| 20260510045006 | 11 | 284 | 0.0 | 3.2 | 0.00 | 1.04 | 0.00 | 86 | 1011.3 |
| 20260510044541 | 11 | 284 | 0.0 | 3.2 | 0.00 | 1.04 | 0.00 | 86 | 1011.3 |
| 20260510044007 | 11 | 284 | 0.0 | 3.2 | 0.00 | 1.04 | 0.00 | 85 | 1011.0 |
| 20260510043507 | 11 | 276 | 0.0 | 3.2 | 0.00 | 1.04 | 0.00 | 85 | 1010.9 |
| 20260510043024 | 11 | 276 | 0.0 | 4.8 | 0.00 | 1.04 | 0.00 | 85 | 1010.9 |
| 20260510042507 | 11 | 259 | 3.2 | 6.4 | 0.00 | 1.04 | 0.00 | 85 | 1010.8 |
| 20260510042008 | 12 | 261 | 4.8 | 8.0 | 0.00 | 1.04 | 0.00 | 85 | 1010.7 |
| 20260510041525 | 12 | 245 | 4.8 | 12.9 | 0.00 | 1.04 | 0.00 | 85 | 1010.7 |
| 20260510041010 | 11 | 259 | 4.8 | 12.9 | 0.00 | 1.04 | 0.00 | 85 | 1010.4 |
| 20260510040508 | 11 | 261 | 4.8 | 11.3 | 0.00 | 1.04 | 0.00 | 85 | 1010.3 |
| 20260510040025 | 11 | 254 | 4.8 | 9.7 | 0.00 | 1.04 | 0.00 | 85 | 1010.2 |
| 20260510035513 | 11 | 246 | 4.8 | 9.7 | 0.00 | 1.04 | 1.04 | 85 | 1010.1 |
| 20260510035008 | 11 | 246 | 4.8 | 11.3 | 0.00 | 1.04 | 1.04 | 85 | 1010.1 |
| 20260510034526 | 11 | 250 | 4.8 | 11.3 | 0.00 | 1.04 | 1.04 | 85 | 1010.2 |
| 20260510034015 | 11 | 246 | 4.8 | 11.3 | 0.00 | 1.04 | 1.04 | 85 | 1010.2 |
| 20260510033506 | 11 | 248 | 4.8 | 11.3 | 0.00 | 1.04 | 1.04 | 85 | 1010.2 |
| 20260510033032 | 11 | 232 | 4.8 | 9.7 | 0.00 | 1.04 | 1.04 | 85 | 1010.2 |
| 20260510032503 | 11 | 226 | 3.2 | 6.4 | 0.00 | 1.04 | 1.04 | 85 | 1010.2 |
| 20260510032004 | 11 | 276 | 3.2 | 6.4 | 0.00 | 1.04 | 1.04 | 85 | 1010.2 |
| 20260510031508 | 11 | 251 | 3.2 | 6.4 | 0.00 | 1.04 | 1.04 | 84 | 1010.2 |
| 20260510031004 | 11 | 242 | 3.2 | 9.7 | 0.00 | 1.04 | 1.04 | 84 | 1010.2 |
| 20260510030506 | 11 | 239 | 4.8 | 9.7 | 0.00 | 1.04 | 1.04 | 84 | 1010.2 |
| 20260510030013 | 11 | 240 | 4.8 | 8.0 | 0.00 | 1.04 | 1.04 | 84 | 1010.4 |
| 20260510025511 | 11 | 249 | 4.8 | 9.7 | 0.00 | 1.04 | 1.04 | 84 | 1010.4 |
| 20260510025010 | 11 | 228 | 4.8 | 11.3 | 0.00 | 1.04 | 1.04 | 85 | 1010.4 |
| 20260510024517 | 11 | 253 | 4.8 | 11.3 | 0.00 | 1.04 | 1.04 | 85 | 1010.4 |
| 20260510024002 | 11 | 251 | 4.8 | 9.7 | 0.00 | 1.04 | 1.04 | 85 | 1010.4 |
| 20260510023503 | 11 | 242 | 4.8 | 8.0 | 0.00 | 1.04 | 1.04 | 85 | 1010.3 |
| 20260510023004 | 11 | 238 | 4.8 | 8.0 | 0.00 | 1.04 | 1.04 | 85 | 1010.4 |
| 20260510022503 | 11 | 254 | 3.2 | 6.4 | 0.00 | 1.04 | 1.04 | 84 | 1010.4 |
| 20260510022003 | 11 | 256 | 3.2 | 6.4 | 0.00 | 1.04 | 1.04 | 84 | 1010.3 |
| 20260510021525 | 11 | 257 | 3.2 | 11.3 | 0.00 | 1.04 | 1.04 | 84 | 1010.3 |
| 20260510021003 | 11 | 232 | 4.8 | 11.3 | 0.00 | 1.04 | 1.04 | 84 | 1010.4 |
| 20260510020504 | 11 | 234 | 3.2 | 6.4 | 0.00 | 1.04 | 1.04 | 84 | 1010.4 |
| 20260510020010 | 11 | 242 | 3.2 | 8.0 | 0.00 | 1.04 | 1.04 | 84 | 1010.3 |
| 20260510015512 | 11 | 248 | 3.2 | 9.7 | 0.00 | 1.04 | 1.04 | 84 | 1010.4 |
| 20260510015005 | 11 | 239 | 4.8 | 9.7 | 0.00 | 1.04 | 1.04 | 84 | 1010.3 |
| 20260510014515 | 11 | 234 | 3.2 | 8.0 | 0.00 | 1.04 | 1.04 | 84 | 1010.3 |
| 20260510014005 | 11 | 238 | 3.2 | 12.9 | 0.00 | 1.04 | 1.04 | 84 | 1010.2 |
| 20260510013506 | 11 | 248 | 6.4 | 12.9 | 0.00 | 1.04 | 1.04 | 84 | 1010.3 |
| 20260510013018 | 11 | 254 | 4.8 | 9.7 | 0.00 | 1.04 | 1.04 | 84 | 1010.2 |
| 20260510012508 | 11 | 255 | 4.8 | 8.0 | 0.00 | 1.04 | 1.04 | 84 | 1010.1 |
| 20260510012003 | 11 | 251 | 4.8 | 8.0 | 0.00 | 1.04 | 1.04 | 84 | 1010.2 |
| 20260510011504 | 11 | 251 | 4.8 | 6.4 | 0.00 | 1.04 | 1.04 | 84 | 1010.1 |
| 20260510011002 | 11 | 229 | 3.2 | 6.4 | 0.00 | 1.04 | 1.04 | 84 | 1010.0 |
| 20260510010502 | 11 | 246 | 3.2 | 6.4 | 0.00 | 1.04 | 1.04 | 84 | 1010.0 |
| 20260510010006 | 11 | 250 | 1.6 | 4.8 | 0.00 | 1.04 | 1.04 | 84 | 1009.9 |
| 20260510005504 | 11 | 252 | 1.6 | 6.4 | 0.00 | 1.04 | 1.04 | 84 | 1009.9 |
| 20260510005003 | 11 | 246 | 3.2 | 6.4 | 0.00 | 1.04 | 1.04 | 84 | 1009.9 |
| 20260510004525 | 11 | 246 | 3.2 | 6.4 | 0.00 | 1.04 | 1.04 | 84 | 1009.8 |
| 20260510004008 | 11 | 233 | 3.2 | 6.4 | 0.00 | 1.04 | 1.04 | 84 | 1009.8 |
| 20260510003505 | 11 | 259 | 4.8 | 8.0 | 0.00 | 1.04 | 1.04 | 84 | 1009.8 |
| 20260510003015 | 11 | 262 | 3.2 | 8.0 | 0.00 | 1.04 | 1.04 | 84 | 1009.7 |
| 20260510002505 | 12 | 263 | 3.2 | 8.0 | 0.00 | 1.04 | 1.04 | 84 | 1009.7 |
| 20260510002006 | 12 | 274 | 1.6 | 4.8 | 0.00 | 1.04 | 1.04 | 84 | 1009.8 |
| 20260510001527 | 12 | 234 | 1.6 | 4.8 | 0.00 | 1.04 | 1.04 | 83 | 1009.7 |
| 20260510001003 | 12 | 254 | 1.6 | 4.8 | 0.00 | 1.04 | 1.04 | 83 | 1009.6 |
| 20260510000503 | 12 | 257 | 1.6 | 3.2 | 0.00 | 1.04 | 1.04 | 83 | 1009.5 |
| 20260510000012 | 12 | 240 | 1.6 | 6.4 | 0.00 | 1.04 | 1.04 | 82 | 1009.6 |
| 20260509235503 | 12 | 242 | 3.2 | 6.4 | 0.00 | 1.04 | 1.04 | 82 | 1009.6 |
| 20260509235003 | 12 | 248 | 3.2 | 6.4 | 0.00 | 1.04 | 1.04 | 82 | 1009.5 |
| 20260509234507 | 12 | 249 | 3.2 | 6.4 | 0.00 | 1.04 | 1.04 | 82 | 1009.4 |
| 20260509234006 | 12 | 246 | 3.2 | 8.0 | 0.00 | 1.04 | 1.04 | 82 | 1009.3 |
| 20260509233505 | 12 | 254 | 3.2 | 11.3 | 0.00 | 1.04 | 1.04 | 82 | 1009.3 |
| 20260509233011 | 12 | 241 | 3.2 | 9.7 | 0.00 | 1.07 | 1.04 | 82 | 1009.3 |
| 20260509232506 | 12 | 258 | 4.8 | 12.9 | 0.00 | 1.07 | 1.04 | 82 | 1009.3 |
| 20260509232007 | 12 | 262 | 6.4 | 12.9 | 0.00 | 1.07 | 1.04 | 83 | 1009.2 |
| 20260509231519 | 12 | 267 | 4.8 | 11.3 | 0.00 | 1.07 | 1.04 | 83 | 1009.3 |
| 20260509231005 | 12 | 253 | 4.8 | 9.7 | 0.00 | 1.07 | 1.04 | 83 | 1009.2 |
| 20260509230506 | 12 | 258 | 4.8 | 8.0 | 0.00 | 1.07 | 1.04 | 84 | 1009.1 |
| 20260509230004 | 12 | 252 | 3.2 | 8.0 | 0.00 | 1.07 | 1.04 | 84 | 1009.2 |
| 20260509225503 | 12 | 258 | 4.8 | 11.3 | 0.00 | 1.07 | 1.04 | 84 | 1009.2 |
| 20260509225002 | 12 | 266 | 4.8 | 11.3 | 0.00 | 1.07 | 1.04 | 84 | 1009.2 |
| 20260509224505 | 12 | 249 | 4.8 | 9.7 | 0.00 | 1.07 | 1.04 | 85 | 1009.2 |
| 20260509224004 | 12 | 237 | 6.4 | 9.7 | 0.00 | 1.07 | 1.04 | 84 | 1009.1 |
| 20260509223504 | 12 | 242 | 3.2 | 11.3 | 0.00 | 1.07 | 1.04 | 85 | 1009.2 |
| 20260509223012 | 12 | 250 | 3.2 | 12.9 | 0.00 | 1.07 | 1.04 | 85 | 1009.3 |
| 20260509222504 | 12 | 246 | 6.4 | 11.3 | 0.00 | 1.07 | 1.04 | 85 | 1009.3 |
| 20260509222004 | 12 | 262 | 4.8 | 8.0 | 0.00 | 1.07 | 1.04 | 86 | 1009.5 |
| 20260509221516 | 12 | 254 | 3.2 | 11.3 | 0.00 | 1.07 | 1.04 | 86 | 1009.5 |
| 20260509221004 | 12 | 244 | 4.8 | 11.3 | 0.00 | 1.07 | 1.04 | 87 | 1009.5 |
| 20260509220508 | 12 | 260 | 3.2 | 6.4 | 0.00 | 1.07 | 1.04 | 88 | 1009.5 |
| 20260509220021 | 12 | 251 | 1.6 | 6.4 | 0.00 | 1.07 | 1.04 | 88 | 1009.5 |
| 20260509215510 | 12 | 269 | 0.0 | 6.4 | 0.00 | 1.07 | 1.04 | 89 | 1009.5 |
| 20260509215010 | 12 | 247 | 3.2 | 6.4 | 0.00 | 1.07 | 1.04 | 89 | 1009.6 |
| 20260509214504 | 12 | 237 | 3.2 | 6.4 | 0.00 | 1.07 | 1.04 | 89 | 1009.6 |
| 20260509214004 | 12 | 245 | 1.6 | 6.4 | 0.00 | 1.07 | 1.04 | 89 | 1009.6 |
| 20260509213504 | 12 | 245 | 3.2 | 6.4 | 0.00 | 1.07 | 1.04 | 90 | 1009.6 |
| 20260509213010 | 12 | 263 | 1.6 | 6.4 | 0.00 | 1.07 | 1.04 | 90 | 1009.7 |
| 20260509212503 | 12 | 255 | 3.2 | 6.4 | 0.00 | 1.07 | 1.04 | 90 | 1009.7 |
| 20260509212006 | 12 | 236 | 1.6 | 3.2 | 0.00 | 1.07 | 1.04 | 90 | 1009.7 |
| 20260509211511 | 12 | 232 | 0.0 | 3.2 | 0.00 | 1.07 | 1.04 | 90 | 1009.7 |
| 20260509211006 | 12 | 262 | 0.0 | 3.2 | 0.00 | 1.07 | 1.04 | 90 | 1009.7 |
| 20260509210510 | 12 | 263 | 0.0 | 3.2 | 0.00 | 1.07 | 1.04 | 90 | 1009.7 |
| 20260509210026 | 12 | 257 | 0.0 | 3.2 | 0.00 | 1.07 | 1.04 | 91 | 1009.7 |
| 20260509205505 | 12 | 257 | 1.6 | 3.2 | 0.00 | 1.07 | 1.04 | 91 | 1009.8 |
| 20260509205006 | 12 | 230 | 1.6 | 4.8 | 0.00 | 1.07 | 1.04 | 91 | 1009.9 |
| 20260509204524 | 12 | 250 | 3.2 | 4.8 | 0.00 | 1.07 | 1.04 | 92 | 1009.9 |
| 20260509204011 | 12 | 240 | 3.2 | 4.8 | 0.00 | 1.07 | 1.04 | 93 | 1010.0 |
| 20260509203502 | 12 | 234 | 1.6 | 4.8 | 0.00 | 1.07 | 1.04 | 93 | 1010.0 |
| 20260509203004 | 11 | 248 | 1.6 | 4.8 | 0.00 | 1.07 | 1.04 | 93 | 1010.0 |
| 20260509202504 | 11 | 257 | 1.6 | 4.8 | 0.00 | 1.07 | 1.04 | 92 | 1010.1 |
| 20260509202005 | 11 | 271 | 1.6 | 8.0 | 0.03 | 1.07 | 1.04 | 92 | 1010.1 |
| 20260509201509 | 11 | 249 | 4.8 | 8.0 | 0.03 | 1.09 | 1.04 | 92 | 1010.1 |
| 20260509201007 | 11 | 249 | 1.6 | 6.4 | 0.05 | 1.09 | 1.04 | 92 | 1010.2 |
| 20260509200504 | 11 | 257 | 3.2 | 6.4 | 0.05 | 1.09 | 1.04 | 93 | 1010.2 |
| 20260509200015 | 11 | 250 | 0.0 | 4.8 | 0.05 | 1.09 | 1.04 | 93 | 1010.2 |
| 20260509195503 | 11 | 241 | 0.0 | 0.0 | 0.05 | 1.09 | 1.04 | 92 | 1010.2 |
| 20260509195006 | 11 | 259 | 0.0 | 0.0 | 0.08 | 1.09 | 1.04 | 92 | 1010.2 |
| 20260509194520 | 10 | 259 | 0.0 | 3.2 | 0.08 | 1.09 | 1.04 | 92 | 1010.2 |
| 20260509194012 | 10 | 259 | 0.0 | 3.2 | 0.10 | 1.09 | 1.04 | 92 | 1010.2 |
| 20260509193513 | 10 | 263 | 1.6 | 4.8 | 0.13 | 1.09 | 1.04 | 92 | 1010.4 |
| 20260509193035 | 10 | 263 | 1.6 | 6.4 | 0.18 | 1.09 | 1.04 | 92 | 1010.4 |
| 20260509192510 | 10 | 252 | 3.2 | 6.4 | 0.20 | 1.09 | 1.04 | 92 | 1010.4 |
| 20260509192004 | 10 | 254 | 3.2 | 6.4 | 0.20 | 1.07 | 1.02 | 92 | 1010.5 |
| 20260509191510 | 10 | 245 | 3.2 | 6.4 | 0.23 | 1.07 | 1.02 | 92 | 1010.6 |
| 20260509191004 | 10 | 249 | 1.6 | 4.8 | 0.20 | 1.04 | 0.99 | 92 | 1010.6 |
| 20260509190503 | 10 | 255 | 1.6 | 6.4 | 0.23 | 1.04 | 0.99 | 92 | 1010.6 |
| 20260509190020 | 10 | 250 | 3.2 | 6.4 | 0.25 | 1.04 | 0.99 | 92 | 1010.6 |
| 20260509185508 | 10 | 257 | 4.8 | 6.4 | 0.28 | 1.04 | 0.99 | 92 | 1010.7 |
| 20260509185006 | 10 | 251 | 1.6 | 8.0 | 0.28 | 1.02 | 0.97 | 91 | 1010.7 |
| 20260509184525 | 10 | 248 | 3.2 | 11.3 | 0.30 | 1.02 | 0.97 | 91 | 1010.7 |
| 20260509184009 | 10 | 246 | 4.8 | 12.9 | 0.33 | 0.99 | 0.94 | 91 | 1010.6 |
| 20260509183504 | 10 | 248 | 6.4 | 12.9 | 0.33 | 0.97 | 0.91 | 91 | 1010.9 |
| 20260509183026 | 10 | 248 | 6.4 | 12.9 | 0.30 | 0.91 | 0.86 | 91 | 1010.9 |
| 20260509182508 | 10 | 257 | 6.4 | 11.3 | 0.30 | 0.89 | 0.84 | 91 | 1011.0 |
| 20260509182010 | 10 | 254 | 4.8 | 12.9 | 0.28 | 0.86 | 0.81 | 91 | 1011.0 |
| 20260509181525 | 10 | 261 | 6.4 | 12.9 | 0.28 | 0.84 | 0.79 | 91 | 1010.9 |
| 20260509181013 | 10 | 255 | 8.0 | 11.3 | 0.30 | 0.84 | 0.79 | 91 | 1010.8 |
| 20260509180505 | 10 | 260 | 4.8 | 11.3 | 0.28 | 0.81 | 0.76 | 90 | 1010.6 |
| 20260509180010 | 10 | 249 | 4.8 | 14.5 | 0.28 | 0.79 | 0.74 | 90 | 1010.8 |
| 20260509175504 | 10 | 240 | 4.8 | 14.5 | 0.28 | 0.76 | 0.71 | 90 | 1010.8 |
| 20260509175004 | 10 | 248 | 8.0 | 16.1 | 0.28 | 0.74 | 0.69 | 90 | 1011.0 |
| 20260509174517 | 10 | 244 | 8.0 | 16.1 | 0.30 | 0.71 | 0.66 | 90 | 1011.0 |
| 20260509174004 | 10 | 255 | 4.8 | 12.9 | 0.28 | 0.66 | 0.61 | 90 | 1010.9 |
| 20260509173507 | 10 | 269 | 3.2 | 12.9 | 0.25 | 0.64 | 0.58 | 90 | 1010.9 |
| 20260509173021 | 10 | 236 | 4.8 | 12.9 | 0.25 | 0.61 | 0.56 | 90 | 1010.9 |
| 20260509172507 | 10 | 260 | 4.8 | 12.9 | 0.25 | 0.58 | 0.53 | 90 | 1010.9 |
| 20260509172009 | 10 | 236 | 3.2 | 8.0 | 0.28 | 0.58 | 0.53 | 90 | 1010.9 |
| 20260509171536 | 10 | 251 | 3.2 | 12.9 | 0.25 | 0.56 | 0.51 | 90 | 1011.0 |
| 20260509171004 | 10 | 233 | 4.8 | 12.9 | 0.25 | 0.53 | 0.48 | 90 | 1011.0 |
| 20260509170504 | 10 | 229 | 4.8 | 11.3 | 0.25 | 0.53 | 0.48 | 90 | 1011.0 |
| 20260509170008 | 10 | 348 | 1.6 | 9.7 | 0.25 | 0.51 | 0.46 | 90 | 1011.1 |
| 20260509165505 | 10 | 249 | 1.6 | 9.7 | 0.23 | 0.48 | 0.43 | 89 | 1011.1 |
| 20260509165006 | 10 | 243 | 4.8 | 8.0 | 0.20 | 0.46 | 0.41 | 89 | 1011.1 |
| 20260509164513 | 10 | 250 | 3.2 | 11.3 | 0.15 | 0.41 | 0.36 | 89 | 1011.2 |
| 20260509164007 | 10 | 252 | 3.2 | 11.3 | 0.15 | 0.38 | 0.33 | 89 | 1011.1 |
| 20260509163507 | 10 | 283 | 1.6 | 6.4 | 0.15 | 0.38 | 0.33 | 89 | 1011.1 |
| 20260509163017 | 11 | 263 | 1.6 | 9.7 | 0.13 | 0.36 | 0.30 | 88 | 1011.1 |
| 20260509162510 | 11 | 262 | 1.6 | 9.7 | 0.10 | 0.33 | 0.28 | 88 | 1011.2 |
| 20260509162006 | 11 | 257 | 3.2 | 9.7 | 0.08 | 0.30 | 0.25 | 88 | 1011.3 |
| 20260509161529 | 11 | 239 | 4.8 | 12.9 | 0.08 | 0.30 | 0.25 | 87 | 1011.3 |
| 20260509161003 | 11 | 241 | 4.8 | 12.9 | 0.05 | 0.28 | 0.23 | 87 | 1011.3 |
| 20260509160503 | 11 | 245 | 4.8 | 12.9 | 0.05 | 0.28 | 0.23 | 87 | 1011.4 |
| 20260509160015 | 11 | 242 | 4.8 | 12.9 | 0.05 | 0.25 | 0.20 | 87 | 1011.3 |
| 20260509155504 | 11 | 242 | 6.4 | 11.3 | 0.05 | 0.25 | 0.20 | 87 | 1011.3 |
| 20260509155008 | 11 | 232 | 6.4 | 11.3 | 0.05 | 0.25 | 0.20 | 87 | 1011.2 |
| 20260509154512 | 11 | 241 | 4.8 | 9.7 | 0.05 | 0.25 | 0.20 | 87 | 1011.3 |
| 20260509154004 | 11 | 226 | 3.2 | 9.7 | 0.03 | 0.23 | 0.18 | 87 | 1011.2 |
| 20260509153504 | 11 | 257 | 3.2 | 14.5 | 0.03 | 0.23 | 0.18 | 86 | 1011.2 |
| 20260509153015 | 11 | 238 | 8.0 | 14.5 | 0.03 | 0.23 | 0.18 | 86 | 1011.2 |
| 20260509152504 | 11 | 250 | 4.8 | 11.3 | 0.03 | 0.23 | 0.18 | 85 | 1011.2 |
| 20260509152008 | 11 | 230 | 4.8 | 11.3 | 0.05 | 0.23 | 0.18 | 86 | 1011.4 |
| 20260509151522 | 11 | 257 | 3.2 | 12.9 | 0.05 | 0.23 | 0.18 | 86 | 1011.3 |
| 20260509151007 | 11 | 257 | 4.8 | 12.9 | 0.05 | 0.23 | 0.18 | 87 | 1011.4 |
| 20260509150511 | 11 | 233 | 4.8 | 11.3 | 0.05 | 0.23 | 0.18 | 86 | 1011.2 |
| 20260509150024 | 10 | 245 | 4.8 | 8.0 | 0.05 | 0.20 | 0.15 | 87 | 1011.3 |
| 20260509145505 | 10 | 259 | 4.8 | 8.0 | 0.05 | 0.20 | 0.15 | 87 | 1011.3 |
| 20260509145005 | 10 | 229 | 1.6 | 6.4 | 0.05 | 0.20 | 0.15 | 87 | 1011.4 |
| 20260509144510 | 10 | 252 | 3.2 | 4.8 | 0.05 | 0.20 | 0.15 | 87 | 1011.3 |
| 20260509144005 | 10 | 241 | 1.6 | 3.2 | 0.08 | 0.20 | 0.15 | 87 | 1011.2 |
| 20260509143507 | 10 | 258 | 0.0 | 3.2 | 0.08 | 0.20 | 0.15 | 87 | 1011.2 |
| 20260509143019 | 10 | 257 | 0.0 | 3.2 | 0.08 | 0.20 | 0.15 | 86 | 1011.2 |
| 20260509142505 | 10 | 337 | 0.0 | 3.2 | 0.10 | 0.20 | 0.15 | 86 | 1011.2 |
| 20260509142008 | 10 | 338 | 0.0 | 3.2 | 0.08 | 0.18 | 0.13 | 86 | 1011.0 |
| 20260509141524 | 10 | 279 | 0.0 | 3.2 | 0.08 | 0.18 | 0.13 | 85 | 1011.0 |
| 20260509141008 | 10 | 94 | 0.0 | 3.2 | 0.08 | 0.18 | 0.13 | 85 | 1011.1 |
| 20260509140507 | 10 | 254 | 0.0 | 3.2 | 0.08 | 0.18 | 0.13 | 85 | 1011.3 |
| 20260509140023 | 10 | 259 | 1.6 | 4.8 | 0.05 | 0.15 | 0.10 | 85 | 1011.5 |
| 20260509135508 | 10 | 271 | 1.6 | 4.8 | 0.08 | 0.15 | 0.10 | 84 | 1011.6 |
| 20260509135012 | 10 | 253 | 3.2 | 3.2 | 0.08 | 0.15 | 0.10 | 85 | 1011.6 |
| 20260509134526 | 10 | 246 | 1.6 | 3.2 | 0.08 | 0.15 | 0.10 | 85 | 1011.5 |
| 20260509134006 | 10 | 268 | 0.0 | 3.2 | 0.05 | 0.13 | 0.08 | 85 | 1011.3 |
| 20260509133504 | 10 | 268 | 0.0 | 3.2 | 0.05 | 0.13 | 0.08 | 83 | 1011.2 |
| 20260509133013 | 10 | 262 | 0.0 | 4.8 | 0.05 | 0.13 | 0.08 | 84 | 1011.2 |
| 20260509132505 | 10 | 262 | 0.0 | 4.8 | 0.03 | 0.10 | 0.05 | 83 | 1011.2 |
| 20260509132004 | 10 | 257 | 1.6 | 4.8 | 0.03 | 0.10 | 0.05 | 82 | 1011.3 |
| 20260509131521 | 10 | 273 | 0.0 | 3.2 | 0.03 | 0.10 | 0.05 | 81 | 1011.1 |
| 20260509131008 | 11 | 133 | 1.6 | 6.4 | 0.03 | 0.10 | 0.05 | 81 | 1011.0 |
| 20260509130506 | 10 | 46 | 1.6 | 8.0 | 0.03 | 0.10 | 0.05 | 81 | 1011.0 |
| 20260509130022 | 10 | 112 | 0.0 | 8.0 | 0.03 | 0.10 | 0.05 | 80 | 1011.0 |
| 20260509125511 | 10 | 93 | 0.0 | 4.8 | 0.00 | 0.08 | 0.03 | 80 | 1011.1 |
| 20260509125007 | 10 | 167 | 1.6 | 3.2 | 0.00 | 0.08 | 0.03 | 80 | 1011.0 |
| 20260509124524 | 10 | 258 | 0.0 | 3.2 | 0.00 | 0.08 | 0.03 | 81 | 1011.1 |
| 20260509124009 | 10 | 332 | 0.0 | 6.4 | 0.00 | 0.08 | 0.03 | 81 | 1011.0 |
| 20260509123511 | 10 | 240 | 0.0 | 6.4 | 0.00 | 0.08 | 0.03 | 80 | 1010.9 |
| 20260509123010 | 10 | 270 | 0.0 | 14.5 | 0.00 | 0.08 | 0.03 | 81 | 1010.8 |
| 20260509122503 | 10 | 90 | 3.2 | 14.5 | 0.00 | 0.08 | 0.03 | 81 | 1010.9 |
| 20260509122007 | 10 | 118 | 4.8 | 14.5 | 0.00 | 0.08 | 0.03 | 82 | 1010.9 |
| 20260509121523 | 10 | 94 | 1.6 | 9.7 | 0.00 | 0.08 | 0.03 | 84 | 1010.9 |
| 20260509121006 | 10 | 176 | 3.2 | 4.8 | 0.00 | 0.08 | 0.03 | 85 | 1010.9 |
| 20260509120508 | 9 | 67 | 1.6 | 4.8 | 0.00 | 0.08 | 0.03 | 86 | 1010.9 |
| 20260509120019 | 9 | 86 | 0.0 | 4.8 | 0.00 | 0.08 | 0.03 | 86 | 1011.0 |
| 20260509115506 | 9 | 89 | 0.0 | 3.2 | 0.00 | 0.08 | 0.03 | 87 | 1011.0 |
| 20260509115007 | 9 | 11 | 0.0 | 3.2 | 0.00 | 0.08 | 0.03 | 87 | 1010.8 |
| 20260509114522 | 9 | 74 | 0.0 | 3.2 | 0.00 | 0.08 | 0.03 | 87 | 1010.9 |
| 20260509114010 | 9 | 300 | 0.0 | 3.2 | 0.00 | 0.08 | 0.03 | 87 | 1010.9 |
| 20260509113512 | 9 | 80 | 0.0 | 3.2 | 0.03 | 0.08 | 0.03 | 87 | 1010.8 |
| 20260509113024 | 9 | 13 | 0.0 | 0.0 | 0.03 | 0.08 | 0.03 | 87 | 1010.9 |
| 20260509112508 | 9 | 9 | 0.0 | 1.6 | 0.03 | 0.08 | 0.03 | 87 | 1010.9 |
| 20260509112009 | 9 | 360 | 0.0 | 3.2 | 0.03 | 0.08 | 0.03 | 86 | 1011.0 |
| 20260509111512 | 9 | 109 | 0.0 | 3.2 | 0.03 | 0.08 | 0.03 | 85 | 1011.0 |
| 20260509111005 | 9 | 67 | 0.0 | 3.2 | 0.03 | 0.08 | 0.03 | 86 | 1011.1 |
| 20260509110505 | 9 | 13 | 0.0 | 3.2 | 0.03 | 0.08 | 0.03 | 86 | 1011.1 |
| 20260509110016 | 9 | 13 | 0.0 | 3.2 | 0.03 | 0.08 | 0.03 | 85 | 1011.0 |
| 20260509105504 | 9 | 51 | 0.0 | 0.0 | 0.03 | 0.08 | 0.03 | 86 | 1011.0 |
| 20260509105010 | 9 | 17 | 0.0 | 0.0 | 0.03 | 0.10 | 0.03 | 86 | 1011.0 |
| 20260509104531 | 9 | 97 | 0.0 | 0.0 | 0.03 | 0.10 | 0.03 | 85 | 1011.0 |
| 20260509104006 | 9 | 200 | 0.0 | 0.0 | 0.03 | 0.10 | 0.03 | 85 | 1011.0 |
| 20260509103508 | 9 | 254 | 0.0 | 3.2 | 0.00 | 0.08 | 0.00 | 85 | 1011.0 |
| 20260509103025 | 9 | 254 | 0.0 | 3.2 | 0.00 | 0.08 | 0.00 | 85 | 1011.1 |
| 20260509102506 | 8 | 224 | 0.0 | 1.6 | 0.00 | 0.08 | 0.00 | 85 | 1011.0 |
| 20260509102011 | 8 | 269 | 0.0 | 6.4 | 0.00 | 0.08 | 0.00 | 86 | 1011.0 |
| 20260509101526 | 8 | 123 | 0.0 | 6.4 | 0.00 | 0.08 | 0.00 | 85 | 1011.1 |
| 20260509101011 | 8 | 82 | 0.0 | 6.4 | 0.00 | 0.08 | 0.00 | 85 | 1010.9 |
| 20260509100511 | 8 | 348 | 0.0 | 3.2 | 0.00 | 0.08 | 0.00 | 87 | 1011.0 |
| 20260509100027 | 8 | 292 | 0.0 | 3.2 | 0.00 | 0.08 | 0.00 | 87 | 1011.0 |
| 20260509095505 | 8 | 202 | 0.0 | 3.2 | 0.00 | 0.08 | 0.00 | 87 | 1010.8 |
| 20260509095005 | 8 | 34 | 0.0 | 3.2 | 0.00 | 0.08 | 0.00 | 87 | 1010.8 |
| 20260509094522 | 8 | 116 | 0.0 | 4.8 | 0.00 | 0.08 | 0.00 | 88 | 1010.7 |
| 20260509094006 | 8 | 261 | 3.2 | 4.8 | 0.00 | 0.08 | 0.00 | 89 | 1010.9 |
| 20260509093506 | 8 | 31 | 1.6 | 4.8 | 0.00 | 0.08 | 0.00 | 89 | 1010.7 |
| 20260509093024 | 8 | 43 | 0.0 | 0.0 | 0.00 | 0.08 | 0.00 | 89 | 1010.9 |
| 20260509092509 | 8 | 36 | 0.0 | 3.2 | 0.00 | 0.08 | 0.00 | 89 | 1010.9 |
| 20260509092007 | 8 | 36 | 0.0 | 3.2 | 0.00 | 0.08 | 0.00 | 89 | 1011.0 |
| 20260509091526 | 8 | 50 | 0.0 | 0.0 | 0.00 | 0.08 | 0.00 | 89 | 1010.9 |
| 20260509091008 | 8 | 50 | 0.0 | 0.0 | 0.00 | 0.08 | 0.00 | 88 | 1011.0 |
| 20260509090509 | 8 | 50 | 0.0 | 0.0 | 0.00 | 0.08 | 0.00 | 88 | 1011.0 |
| 20260509090026 | 8 | 50 | 0.0 | 0.0 | 0.00 | 0.08 | 0.00 | 88 | 1011.2 |
| 20260509085507 | 8 | 71 | 0.0 | 0.0 | 0.00 | 0.08 | 0.00 | 86 | 1011.5 |
| 20260509085013 | 8 | 44 | 0.0 | 0.0 | 0.00 | 0.08 | 0.00 | 86 | 1011.6 |
| 20260509084523 | 8 | 38 | 0.0 | 0.0 | 0.00 | 0.08 | 0.00 | 86 | 1011.6 |
| 20260509084005 | 8 | 39 | 0.0 | 0.0 | 0.00 | 0.08 | 0.00 | 86 | 1011.6 |
| 20260509083505 | 8 | 39 | 0.0 | 0.0 | 0.00 | 0.08 | 0.00 | 85 | 1011.6 |
| 20260509083021 | 8 | 56 | 0.0 | 0.0 | 0.00 | 0.08 | 0.00 | 85 | 1011.6 |
| 20260509082509 | 8 | 52 | 0.0 | 0.0 | 0.00 | 0.08 | 0.00 | 85 | 1011.8 |
| 20260509082006 | 8 | 52 | 0.0 | 0.0 | 0.00 | 0.08 | 0.00 | 86 | 1011.9 |
| 20260509081510 | 8 | 52 | 0.0 | 1.6 | 0.00 | 0.08 | 0.00 | 86 | 1011.9 |
| 20260509081003 | 8 | 52 | 0.0 | 1.6 | 0.00 | 0.08 | 0.00 | 86 | 1011.9 |
| 20260509080503 | 8 | 52 | 0.0 | 0.0 | 0.00 | 0.08 | 0.00 | 86 | 1012.0 |
| 20260509080010 | 8 | 87 | 0.0 | 0.0 | 0.00 | 0.08 | 0.00 | 87 | 1012.1 |
| 20260509075505 | 8 | 100 | 0.0 | 0.0 | 0.00 | 0.08 | 0.00 | 87 | 1012.1 |
| 20260509075004 | 8 | 100 | 0.0 | 0.0 | 0.00 | 0.08 | 0.00 | 87 | 1012.1 |
| 20260509074514 | 8 | 105 | 0.0 | 0.0 | 0.00 | 0.08 | 0.00 | 87 | 1012.0 |
| 20260509074004 | 8 | 130 | 0.0 | 3.2 | 0.00 | 0.08 | 0.00 | 87 | 1012.0 |
| 20260509073504 | 8 | 130 | 0.0 | 3.2 | 0.00 | 0.08 | 0.00 | 87 | 1012.0 |
| 20260509073015 | 8 | 336 | 0.0 | 0.0 | 0.00 | 0.08 | 0.00 | 87 | 1012.0 |
| 20260509072505 | 8 | 293 | 0.0 | 0.0 | 0.00 | 0.08 | 0.00 | 87 | 1012.0 |
| 20260509072006 | 8 | 293 | 0.0 | 0.0 | 0.00 | 0.08 | 0.00 | 88 | 1012.2 |
| 20260509071504 | 8 | 291 | 0.0 | 0.0 | 0.00 | 0.08 | 0.00 | 88 | 1012.2 |
| 20260509071002 | 8 | 268 | 0.0 | 0.0 | 0.00 | 0.08 | 0.00 | 88 | 1012.3 |
| 20260509070502 | 8 | 264 | 0.0 | 0.0 | 0.00 | 0.08 | 0.00 | 89 | 1012.3 |
| 20260509070009 | 8 | 264 | 0.0 | 0.0 | 0.00 | 0.08 | 0.00 | 89 | 1012.3 |
| 20260509065504 | 8 | 264 | 0.0 | 0.0 | 0.00 | 0.08 | 0.00 | 89 | 1012.2 |
| 20260509065002 | 8 | 264 | 0.0 | 0.0 | 0.00 | 0.08 | 0.00 | 88 | 1012.2 |
| 20260509064512 | 8 | 264 | 0.0 | 0.0 | 0.00 | 0.08 | 0.00 | 88 | 1011.8 |
| 20260509064005 | 8 | 257 | 0.0 | 0.0 | 0.00 | 0.08 | 0.00 | 88 | 1011.8 |
| 20260509063506 | 8 | 254 | 0.0 | 0.0 | 0.00 | 0.08 | 0.00 | 87 | 1011.8 |
| 20260509063016 | 8 | 275 | 0.0 | 0.0 | 0.00 | 0.08 | 0.00 | 87 | 1011.9 |
| 20260509062512 | 8 | 275 | 0.0 | 0.0 | 0.00 | 0.08 | 0.00 | 87 | 1012.2 |
| 20260509062009 | 9 | 275 | 0.0 | 0.0 | 0.00 | 0.08 | 0.00 | 87 | 1012.3 |
| 20260509061515 | 9 | 275 | 0.0 | 0.0 | 0.00 | 0.08 | 0.00 | 86 | 1012.4 |
| 20260509061007 | 9 | 275 | 0.0 | 0.0 | 0.00 | 0.08 | 0.00 | 86 | 1012.5 |
| 20260509060502 | 9 | 275 | 0.0 | 0.0 | 0.00 | 0.08 | 0.00 | 86 | 1012.5 |
| 20260509060003 | 9 | 275 | 0.0 | 0.0 | 0.00 | 0.08 | 0.00 | 85 | 1012.7 |
| 20260509055503 | 9 | 275 | 0.0 | 0.0 | 0.00 | 0.08 | 0.00 | 85 | 1012.6 |
| 20260509055003 | 9 | 275 | 0.0 | 0.0 | 0.00 | 0.08 | 0.00 | 85 | 1012.8 |
| 20260509054513 | 9 | 275 | 0.0 | 0.0 | 0.00 | 0.08 | 0.00 | 85 | 1012.9 |
| 20260509054007 | 9 | 275 | 0.0 | 3.2 | 0.00 | 0.08 | 0.00 | 85 | 1012.9 |
| 20260509053506 | 9 | 275 | 0.0 | 4.8 | 0.00 | 0.08 | 0.00 | 85 | 1012.9 |
| 20260509053013 | 9 | 260 | 0.0 | 4.8 | 0.00 | 0.08 | 0.00 | 84 | 1013.1 |
| 20260509052505 | 9 | 247 | 1.6 | 6.4 | 0.00 | 0.08 | 0.00 | 85 | 1013.2 |
| 20260509052008 | 8 | 254 | 3.2 | 6.4 | 0.00 | 0.08 | 0.00 | 86 | 1013.1 |
| 20260509051528 | 8 | 234 | 1.6 | 4.8 | 0.00 | 0.08 | 0.00 | 87 | 1013.1 |
| 20260509051009 | 8 | 258 | 0.0 | 6.4 | 0.00 | 0.10 | 0.00 | 88 | 1012.7 |
| 20260509050509 | 8 | 263 | 1.6 | 6.4 | 0.00 | 0.10 | 0.00 | 88 | 1012.5 |
| 20260509050021 | 8 | 258 | 1.6 | 4.8 | 0.00 | 0.10 | 0.00 | 89 | 1012.7 |
| 20260509045505 | 8 | 284 | 0.0 | 4.8 | 0.00 | 0.18 | 0.00 | 89 | 1012.8 |